Вернуться в каталог

STARLINK-6342

АктивенСвязьVLEO
NORAD 56770·PAYLOAD·🇺🇸 United States

Запущен May 31, 2023 с Vandenberg Space Force Base

Loading…

Ближайшие Пролёты (ближайшие 24 часа)

TLE

СвежийSource: CelesTrak SupGP

Эпоха: Sep 15, 2026, 01:33 UTC

1 56770C 23078D   26258.06506944  .00676650  00000+0  55972-1 0  2588
2 56770  70.0006 246.9734 0003193 264.8165  95.7191 14.98493405    13

Отслеживайте STARLINK-6342 в реальном времени с AllMySat

Download on the App Store